Regional Weather Roundup
Issued by NWS

Home | Current Version | Previous Version | Text Only | Print | Product List | Glossary Off
Versions: 1 2 3 4 5 6 7 8 9 10 11 12 13 14 15 16 17 18 19 20 21 22 23 24 25 26 27 28 29 30 31 32 33 34 35 36 37 38 39 40 41 42 43 44 45 46 47 48 49 50

000
ASUS43 KMPX 040401
RWRMN
WEATHER ROUNDUP FOR MINNESOTA
NATIONAL WEATHER SERVICE TWIN CITIES/CHANHASSEN MN
1100 PM CDT MON AUG 03 2015


NOTE: "FAIR" INDICATES FEW OR NO CLOUDS BELOW 12,000 FEET WITH NO
SIGNIFICANT WEATHER AND/OR OBSTRUCTIONS TO VISIBILITY. N/A MEANS
CURRENT SKY AND/OR WEATHER CONDITIONS ARE NOT AVAILABLE.

MNZ060>063-068>070-040500-
   Twin Cities Metro

CITY           SKY/WX    TMP DP  RH WIND       PRES   REMARKS
TWIN CITIES    PTCLDY    69  53  56 W6        29.93R
ST PAUL        CLEAR     70  51  51 NW8       29.92R
CRYSTAL        CLEAR     66  54  65 W6        29.92R
BLAINE         PTCLDY    66  54  63 W3        29.92S
LAKEVILLE      CLEAR     63  54  72 W3        29.94R
EDEN PRAIRIE   CLEAR     68  53  58 W6        29.92S
SOUTH ST PAUL  CLEAR     69  52  54 W5        29.92S
LAKE ELMO      FAIR      64  54  68 CALM      29.93R
$$
MNZ001>005-007-008-013>017-022>024-027-028-040500-
   Northwest Minnesota

CITY           SKY/WX    TMP DP  RH WIND       PRES   REMARKS
BEMIDJI        CLEAR     56  46  69 W3        29.93S
HALLOCK        CLEAR     57  52  82 CALM      29.92R
ROSEAU         CLEAR     55  52  88 CALM      29.91S
WARROAD        CLEAR     59  54  82 NW3       29.91S
THIEF RVR FALL CLEAR     55  50  82 CALM      29.93S
CROOKSTON      CLEAR     61  54  77 CALM      29.93R
FOSSTON        CLEAR     50  45  81 CALM      29.95R
DETROIT LAKES  CLEAR     59  54  82 CALM      29.97S
MOORHEAD       CLEAR     57  52  82 CALM      29.95S
PARK RAPIDS    CLEAR     57  49  74 W3        29.94S
MAHNOMEN       FAIR      57  53  85 S5        29.94R
$$
MNZ006-009>011-018-025>026-040500-
   North Central Minnesota

CITY           SKY/WX    TMP DP  RH WIND       PRES   REMARKS
BAUDETTE       MOCLDY    58  52  80 W5        29.90R
FLAG ISLAND    PTCLDY    64  52  63 NW13      29.89R
INTL FALLS     CLEAR     49  48  97 CALM      29.88S
WASKISH        CLEAR     63  54  72 W5        29.91R
BIG FORK       CLEAR     52  50  93 CALM      29.91S
LONGVILLE      CLEAR     54  52  94 CALM      29.93S
GRAND RAPIDS   CLEAR     52  48  87 SW3       29.92S
CRANE LAKE     MOCLDY    55  54  94 CALM      29.90R
ORR            CLEAR     54  50  87 CALM      29.87S
COOK           PTCLDY    54  52  94 CALM      29.90S
WALKER         FAIR      54  51  90 W3        29.93S
$$
MNZ012-019>021-037-040500-
   Northeast Minnesota

CITY           SKY/WX    TMP DP  RH WIND       PRES   REMARKS
DULUTH         PTCLDY    59  51  75 W6        29.90S
ELY            MOCLDY    55  54  94 W5        29.88S
HIBBING        PTCLDY    50  49  96 CALM      29.90S
EVELETH        CLEAR     57  50  77 CALM      29.91S
DULUTH HARBOR  PTCLDY    64  55  72 W7        29.90R
TWO HARBORS    PTCLDY    63  55  77 NW6       29.86F
SILVER BAY     CLEAR     59  55  88 W7        29.84F
GRAND MARAIS     N/A     53  48  83 CALM      29.82S
G MARAIS ARPRT PTCLDY    55  50  82 NW3       29.85S
$$
MNZ029>031-032-039>041-046>048-054>057-064-040500-
   West Central Minnesota

CITY           SKY/WX    TMP DP  RH WIND       PRES   REMARKS
FERGUS FALLS   CLEAR     61  54  77 CALM      29.96R
WHEATON        CLEAR     57  52  82 CALM      29.98S
MORRIS         CLEAR     63  55  77 CALM      29.96S
ALEXANDRIA     CLEAR     61  53  75 CALM      29.99R
ELBOW LAKE     FAIR      62  54  73 CALM      29.97R
WADENA         CLEAR     55  48  76 CALM      29.96R
GLENWOOD       CLEAR     61  52  72 NW5       29.99R
APPLETON       CLEAR     59  55  88 CALM      29.97R
BENSON         CLEAR     55  52  88 CALM      29.97S
ORTONVILLE     CLEAR     63  52  67 CALM      29.97S
MADISON        CLEAR     61  54  77 W3        29.98R
WILLMAR        FAIR      59  54  82 CALM      29.98S
$$
MNZ033>034-036-042>043-049>051-058-059-040500-
   Central Minnesota

CITY           SKY/WX    TMP DP  RH WIND       PRES   REMARKS
ST CLOUD       CLEAR     61  52  72 NW6       29.95R
SAUK CENTRE    FAIR      56  52  85 CALM      29.97S
PAYNESVILLE    CLEAR     52  50  91 SW3       29.97S
AITKIN         MOCLDY    54  48  82 CALM      29.92S
PINE RIVER     CLEAR     54  48  82 CALM      29.97S
BRAINERD       CLEAR     55  51  86 CALM      29.94S
STAPLES        CLEAR     54  48  82 CALM      29.96R
LONG PRAIRIE   FAIR      55  54  94 CALM      29.97R
LITTLE FALLS     N/A     55  50  82 CALM      29.96R
LITCHFIELD     CLEAR     66  54  63 W3        29.97R
BUFFALO        CLEAR     65  53  64 W5        29.96R
MAPLE LAKE     CLEAR     59  54  82 W3        29.95S
$$
MNZ037-044-045-052-053-040500-
   East Central Minnesota

CITY           SKY/WX    TMP DP  RH WIND       PRES   REMARKS
PRINCETON      CLEAR     61  55  82 CALM      29.94R
MORA           PTCLDY    55  52  88 CALM      29.95R
CAMBRIDGE      PTCLDY    63  52  67 CALM      29.92R
RUSH CITY      MOCLDY    57  54  89 CALM      29.93R
MOOSE LAKE     CLEAR     54  52  94 CALM      29.91R
HINCKLEY       FAIR      57  54  88 CALM      29.93R
CLOQUET        CLEAR     57  50  77 W5        29.92R
MCGREGOR       CLEAR     54  52  94 CALM      29.93R
$$
MNZ071>073-080-081-089-090-097-098-040500-
   Southwest Minnesota

CITY           SKY/WX    TMP DP  RH WIND       PRES   REMARKS
MONTEVIDEO     CLEAR     61  48  63 NE5       29.99R
GRANITE FALLS  CLEAR     57  55  92 W3        29.99R
CANBY          CLEAR     61  55  81 W3        29.99S
MARSHALL       CLEAR     61  52  72 W5        30.00R
REDWOOD FALLS  CLEAR     68  53  58 NW6       29.96R
OLIVIA         CLEAR     57  50  77 CALM      29.96S
PIPESTONE      CLEAR     64  57  77 CALM      30.00S
WINDOM         CLEAR     63  57  82 CALM      29.99S
WORTHINGTON    CLEAR     63  54  72 NW3       30.00R
JACKSON        CLEAR     63  59  88 CALM      29.99S
TRACY          CLEAR     63  57  82 SW5       29.99R
SLAYTON        CLEAR     61  58  88 CALM      30.01S
$$
MNZ065>067-074>077-082>085-091>093-040500-
   South Central Minnesota

CITY           SKY/WX    TMP DP  RH WIND       PRES   REMARKS
MANKATO        CLEAR     64  52  63 SW5       29.95R
NEW ULM        CLEAR     57  54  88 W5        29.96R
ST JAMES       CLEAR     63  55  77 CALM      29.98R
FAIRMONT       CLEAR     63  52  67 CALM      29.97S
GLENCOE        CLEAR     60  56  85 SW3       29.95R
FARIBAULT      CLEAR     61  55  82 W5        29.95S
OWATONNA       CLEAR     57  54  88 CALM      29.95S
WASECA         CLEAR     55  54  94 SW3       29.97R
ALBERT LEA     CLEAR     61  55  82 CALM      29.96S
$$
MNZ078>079-086>088-094>096-040500-
   Southeast Minnesota

CITY           SKY/WX    TMP DP  RH WIND       PRES   REMARKS
ROCHESTER      CLEAR     61  53  75 W9        29.96S
RED WING       CLEAR     63  55  77 CALM      29.91R
STANTON        CLEAR     60  55  81 CALM      29.93S
DODGE CENTER   CLEAR     63  52  67 NW6       29.95S
WINONA         CLEAR     63  54  72 CALM      29.92S
AUSTIN         CLEAR     66  55  68 CALM      29.95S
PRESTON        CLEAR     60  52  74 W7        29.95S
$$
ABBREVIATIONS USED IN REMARKS
   TC - TEMPERATURES IN CELSIUS
  WCI - WIND CHILL INDEX
   HX - HEAT INDEX
  VSB - VISIBILITY
$$


USA.gov is the U.S. government's official web portal to all federal, state and local government web resources and services.